| time (UTC) | temp F | wind direction | speed MPH | gust MPH | rain 1hr in | rain 24hr in | rain mn in | humidity % | barometer mb |
| 20260508225101 | 73 | 158 | 3.0 | 7.0 | 0.00 | 0.00 | 0.00 | 57 | 1007.6 |
| 20260508224607 | 73 | 191 | 2.0 | 8.0 | 0.00 | 0.00 | 0.00 | 56 | 1007.6 |
| 20260508224058 | 73 | 196 | 3.0 | 8.0 | 0.00 | 0.00 | 0.00 | 55 | 1007.6 |
| 20260508223558 | 73 | 182 | 1.0 | 5.0 | 0.00 | 0.00 | 0.00 | 55 | 1007.7 |
| 20260508223058 | 73 | 203 | 1.0 | 10.0 | 0.00 | 0.00 | 0.00 | 58 | 1007.6 |
| 20260508222557 | 73 | 223 | 3.0 | 11.0 | 0.00 | 0.00 | 0.00 | 52 | 1007.7 |
| 20260508222057 | 74 | 31 | 4.0 | 11.0 | 0.00 | 0.00 | 0.00 | 54 | 1007.7 |
| 20260508221559 | 74 | 324 | 0.0 | 7.0 | 0.00 | 0.00 | 0.00 | 52 | 1007.8 |
| 20260508221057 | 74 | 205 | 2.0 | 7.0 | 0.00 | 0.00 | 0.00 | 54 | 1007.8 |
| 20260508220657 | 75 | 195 | 1.0 | 10.0 | 0.00 | 0.00 | 0.00 | 53 | 1007.8 |
| 20260508220058 | 74 | 188 | 4.0 | 10.0 | 0.00 | 0.00 | 0.00 | 51 | 1007.8 |
| 20260508215558 | 75 | 317 | 4.0 | 10.0 | 0.00 | 0.00 | 0.00 | 51 | 1007.7 |
| 20260508215100 | 75 | 347 | 2.0 | 8.0 | 0.00 | 0.00 | 0.00 | 54 | 1007.7 |
| 20260508214557 | 74 | 220 | 2.0 | 6.0 | 0.00 | 0.00 | 0.00 | 52 | 1007.8 |
| 20260508214056 | 74 | 159 | 2.0 | 9.0 | 0.00 | 0.00 | 0.00 | 52 | 1007.8 |
| 20260508213557 | 74 | 228 | 4.0 | 9.0 | 0.00 | 0.00 | 0.00 | 50 | 1007.9 |
| 20260508213102 | 75 | 270 | 2.0 | 8.0 | 0.00 | 0.00 | 0.00 | 51 | 1008.0 |
| 20260508212555 | 75 | 230 | 2.0 | 8.0 | 0.00 | 0.00 | 0.00 | 52 | 1008.0 |
| 20260508212054 | 75 | 173 | 1.0 | 7.0 | 0.00 | 0.00 | 0.00 | 52 | 1008.1 |
| 20260508211553 | 75 | 181 | 2.0 | 9.0 | 0.00 | 0.00 | 0.00 | 56 | 1008.1 |
| 20260508211057 | 75 | 117 | 2.0 | 9.0 | 0.00 | 0.00 | 0.00 | 55 | 1008.2 |
| 20260508210652 | 74 | 214 | 3.0 | 9.0 | 0.00 | 0.00 | 0.00 | 53 | 1008.3 |
| 20260508210058 | 73 | 173 | 2.0 | 9.0 | 0.00 | 0.00 | 0.00 | 55 | 1008.4 |
| 20260508205557 | 73 | 177 | 3.0 | 9.0 | 0.00 | 0.00 | 0.00 | 52 | 1008.6 |
| 20260508205057 | 74 | 36 | 2.0 | 8.0 | 0.00 | 0.00 | 0.00 | 53 | 1008.6 |
| 20260508204556 | 75 | 33 | 2.0 | 8.0 | 0.00 | 0.00 | 0.00 | 51 | 1008.7 |
| 20260508204055 | 73 | 229 | 1.0 | 6.0 | 0.00 | 0.00 | 0.00 | 55 | 1008.8 |
| 20260508203557 | 73 | 205 | 1.0 | 7.0 | 0.00 | 0.00 | 0.00 | 53 | 1008.9 |
| 20260508203055 | 73 | 182 | 2.0 | 7.0 | 0.00 | 0.00 | 0.00 | 53 | 1008.9 |
| 20260508202553 | 73 | 187 | 2.0 | 7.0 | 0.00 | 0.00 | 0.00 | 52 | 1009.1 |
| 20260508202052 | 74 | 150 | 3.0 | 8.0 | 0.00 | 0.00 | 0.00 | 55 | 1009.4 |
| 20260508201602 | 73 | 192 | 3.0 | 8.0 | 0.00 | 0.00 | 0.00 | 52 | 1009.4 |
| 20260508201051 | 72 | 327 | 4.0 | 9.0 | 0.00 | 0.00 | 0.00 | 54 | 1009.5 |
| 20260508200650 | 72 | 307 | 2.0 | 9.0 | 0.00 | 0.00 | 0.00 | 56 | 1009.6 |
| 20260508200106 | 71 | 201 | 1.0 | 7.0 | 0.00 | 0.00 | 0.00 | 52 | 1009.6 |
| 20260508195554 | 71 | 197 | 2.0 | 7.0 | 0.00 | 0.00 | 0.00 | 52 | 1009.7 |
| 20260508195054 | 71 | 273 | 2.0 | 8.0 | 0.00 | 0.00 | 0.00 | 51 | 1009.8 |
| 20260508194557 | 71 | 314 | 3.0 | 9.0 | 0.00 | 0.00 | 0.00 | 54 | 1009.9 |
| 20260508194055 | 71 | 198 | 3.0 | 10.0 | 0.00 | 0.00 | 0.00 | 51 | 1009.8 |
| 20260508193552 | 71 | 199 | 2.0 | 8.0 | 0.00 | 0.00 | 0.00 | 54 | 1010.0 |
| 20260508193100 | 72 | 171 | 2.0 | 9.0 | 0.00 | 0.00 | 0.00 | 55 | 1010.1 |
| 20260508192551 | 72 | 199 | 3.0 | 10.0 | 0.00 | 0.00 | 0.00 | 54 | 1010.1 |
| 20260508192050 | 72 | 193 | 3.0 | 10.0 | 0.00 | 0.00 | 0.00 | 49 | 1010.1 |
| 20260508191550 | 73 | 240 | 3.0 | 10.0 | 0.00 | 0.00 | 0.00 | 50 | 1010.2 |
| 20260508191048 | 73 | 184 | 3.0 | 10.0 | 0.00 | 0.00 | 0.00 | 52 | 1010.2 |
| 20260508190649 | 73 | 155 | 3.0 | 10.0 | 0.00 | 0.00 | 0.00 | 50 | 1010.2 |
| 20260508190048 | 73 | 163 | 5.0 | 10.0 | 0.00 | 0.00 | 0.00 | 49 | 1010.3 |
| 20260508185549 | 73 | 196 | 4.0 | 14.0 | 0.00 | 0.00 | 0.00 | 50 | 1010.4 |
| 20260508185045 | 73 | 188 | 6.0 | 14.0 | 0.00 | 0.00 | 0.00 | 50 | 1010.5 |
| 20260508184554 | 73 | 175 | 6.0 | 16.0 | 0.00 | 0.00 | 0.00 | 47 | 1010.4 |
| 20260508184043 | 73 | 31 | 5.0 | 16.0 | 0.00 | 0.00 | 0.00 | 47 | 1010.6 |
| 20260508183543 | 74 | 204 | 4.0 | 12.0 | 0.00 | 0.00 | 0.00 | 50 | 1010.6 |
| 20260508183049 | 73 | 125 | 4.0 | 21.0 | 0.00 | 0.00 | 0.00 | 50 | 1010.6 |
| 20260508182541 | 73 | 203 | 4.0 | 21.0 | 0.00 | 0.00 | 0.00 | 50 | 1010.7 |
| 20260508182041 | 74 | 182 | 4.0 | 14.0 | 0.00 | 0.00 | 0.00 | 48 | 1010.6 |
| 20260508181543 | 74 | 204 | 4.0 | 13.0 | 0.00 | 0.00 | 0.00 | 49 | 1010.7 |
| 20260508181040 | 75 | 202 | 3.0 | 10.0 | 0.00 | 0.00 | 0.00 | 51 | 1010.7 |
| 20260508180507 | 74 | 205 | 3.0 | 10.0 | 0.00 | 0.00 | 0.00 | 52 | 1010.8 |
| 20260508180005 | 74 | 213 | 2.0 | 10.0 | 0.00 | 0.00 | 0.00 | 49 | 1010.8 |
| 20260508175505 | 74 | 198 | 4.0 | 11.0 | 0.00 | 0.00 | 0.00 | 49 | 1011.0 |
| 20260508175003 | 74 | 97 | 1.0 | 9.0 | 0.00 | 0.00 | 0.00 | 55 | 1011.0 |
| 20260508174503 | 73 | 214 | 4.0 | 9.0 | 0.00 | 0.00 | 0.00 | 47 | 1011.1 |
| 20260508174002 | 73 | 178 | 3.0 | 9.0 | 0.00 | 0.00 | 0.00 | 50 | 1011.2 |
| 20260508173501 | 73 | 5 | 3.0 | 10.0 | 0.00 | 0.00 | 0.00 | 49 | 1011.1 |
| 20260508173100 | 73 | 210 | 5.0 | 13.0 | 0.00 | 0.00 | 0.00 | 49 | 1011.3 |
| 20260508172602 | 73 | 184 | 5.0 | 13.0 | 0.00 | 0.00 | 0.00 | 49 | 1011.5 |
| 20260508172100 | 73 | 196 | 5.0 | 13.0 | 0.00 | 0.00 | 0.00 | 49 | 1011.5 |
| 20260508171600 | 72 | 298 | 4.0 | 13.0 | 0.00 | 0.00 | 0.00 | 49 | 1011.5 |
| 20260508171100 | 72 | 259 | 4.0 | 12.0 | 0.00 | 0.00 | 0.00 | 52 | 1011.5 |
| 20260508170502 | 72 | 246 | 3.0 | 10.0 | 0.00 | 0.00 | 0.00 | 52 | 1011.8 |
| 20260508170002 | 72 | 276 | 5.0 | 10.0 | 0.00 | 0.00 | 0.00 | 52 | 1012.0 |
| 20260508165500 | 72 | 228 | 3.0 | 10.0 | 0.00 | 0.00 | 0.00 | 58 | 1012.0 |
| 20260508165059 | 71 | 295 | 2.0 | 11.0 | 0.00 | 0.00 | 0.00 | 52 | 1012.1 |
| 20260508164605 | 71 | 269 | 2.0 | 11.0 | 0.00 | 0.00 | 0.00 | 50 | 1012.3 |
| 20260508164059 | 71 | 279 | 3.0 | 7.0 | 0.00 | 0.00 | 0.00 | 53 | 1012.3 |
| 20260508163557 | 71 | 337 | 2.0 | 9.0 | 0.00 | 0.00 | 0.00 | 54 | 1012.4 |
| 20260508163117 | 71 | 279 | 3.0 | 9.0 | 0.00 | 0.00 | 0.00 | 55 | 1012.4 |
| 20260508162557 | 71 | 205 | 5.0 | 9.0 | 0.00 | 0.00 | 0.00 | 52 | 1012.5 |
| 20260508162056 | 71 | 188 | 1.0 | 9.0 | 0.00 | 0.00 | 0.00 | 58 | 1012.6 |
| 20260508161556 | 70 | 150 | 3.0 | 11.0 | 0.00 | 0.00 | 0.00 | 54 | 1012.7 |
| 20260508161053 | 69 | 230 | 3.0 | 12.0 | 0.00 | 0.00 | 0.00 | 68 | 1012.7 |
| 20260508160501 | 68 | 304 | 1.0 | 4.0 | 0.00 | 0.00 | 0.00 | 65 | 1013.1 |
| 20260508160100 | 67 | 340 | 1.0 | 4.0 | 0.00 | 0.00 | 0.00 | 68 | 1013.1 |
| 20260508155559 | 66 | 271 | 0.0 | 5.0 | 0.00 | 0.00 | 0.00 | 71 | 1013.0 |
| 20260508155101 | 66 | 243 | 1.0 | 5.0 | 0.00 | 0.00 | 0.00 | 68 | 1013.0 |
| 20260508154559 | 66 | 279 | 0.0 | 3.0 | 0.00 | 0.00 | 0.00 | 68 | 1013.3 |
| 20260508154054 | 65 | 315 | 0.0 | 9.0 | 0.00 | 0.00 | 0.00 | 70 | 1013.2 |
| 20260508153554 | 64 | 204 | 1.0 | 9.0 | 0.00 | 0.00 | 0.00 | 70 | 1013.3 |
| 20260508153056 | 64 | 278 | 1.0 | 3.0 | 0.00 | 0.00 | 0.00 | 69 | 1013.4 |
| 20260508152552 | 64 | 273 | 1.0 | 4.0 | 0.00 | 0.00 | 0.00 | 67 | 1013.5 |
| 20260508152052 | 64 | 193 | 1.0 | 4.0 | 0.00 | 0.00 | 0.00 | 70 | 1013.4 |
| 20260508151552 | 64 | 194 | 0.0 | 4.0 | 0.00 | 0.00 | 0.00 | 72 | 1013.4 |
| 20260508151050 | 63 | 265 | 1.0 | 4.0 | 0.00 | 0.00 | 0.00 | 71 | 1013.5 |
| 20260508150648 | 62 | 65 | 0.0 | 7.0 | 0.00 | 0.00 | 0.00 | 71 | 1013.6 |
| 20260508150052 | 61 | 194 | 1.0 | 7.0 | 0.00 | 0.00 | 0.00 | 72 | 1013.5 |
| 20260508145550 | 61 | 146 | 2.0 | 6.0 | 0.00 | 0.00 | 0.00 | 73 | 1013.4 |
| 20260508145052 | 61 | 244 | 3.0 | 7.0 | 0.00 | 0.00 | 0.00 | 70 | 1013.3 |
| 20260508144549 | 60 | 188 | 2.0 | 5.0 | 0.00 | 0.00 | 0.00 | 71 | 1013.5 |
| 20260508144047 | 59 | 199 | 0.0 | 7.0 | 0.00 | 0.00 | 0.00 | 77 | 1013.6 |
| 20260508143546 | 59 | 202 | 1.0 | 7.0 | 0.00 | 0.00 | 0.00 | 74 | 1013.5 |
| 20260508143048 | 58 | 151 | 1.0 | 4.0 | 0.00 | 0.00 | 0.00 | 73 | 1013.7 |
| 20260508142544 | 58 | 190 | 2.0 | 5.0 | 0.00 | 0.00 | 0.00 | 74 | 1013.8 |
| 20260508142048 | 58 | 174 | 2.0 | 6.0 | 0.00 | 0.00 | 0.00 | 75 | 1013.8 |
| 20260508141545 | 58 | 161 | 2.0 | 6.0 | 0.00 | 0.00 | 0.00 | 72 | 1013.9 |
| 20260508141044 | 58 | 134 | 1.0 | 6.0 | 0.00 | 0.00 | 0.00 | 75 | 1013.9 |
| 20260508140646 | 58 | 179 | 3.0 | 6.0 | 0.00 | 0.00 | 0.00 | 73 | 1014.0 |
| 20260508140053 | 58 | 162 | 2.0 | 8.0 | 0.00 | 0.00 | 0.00 | 72 | 1014.0 |
| 20260508135553 | 58 | 196 | 3.0 | 8.0 | 0.00 | 0.00 | 0.00 | 73 | 1014.0 |
| 20260508135052 | 58 | 137 | 2.0 | 8.0 | 0.00 | 0.00 | 0.00 | 73 | 1014.0 |
| 20260508134550 | 57 | 174 | 1.0 | 6.0 | 0.00 | 0.00 | 0.00 | 77 | 1014.0 |
| 20260508134048 | 57 | 169 | 2.0 | 7.0 | 0.00 | 0.00 | 0.00 | 76 | 1014.0 |
| 20260508133550 | 57 | 136 | 3.0 | 7.0 | 0.00 | 0.00 | 0.00 | 75 | 1014.1 |
| 20260508133048 | 56 | 121 | 1.0 | 6.0 | 0.00 | 0.00 | 0.00 | 80 | 1014.2 |
| 20260508132545 | 56 | 194 | 1.0 | 6.0 | 0.00 | 0.00 | 0.00 | 81 | 1014.1 |
| 20260508132042 | 55 | 146 | 1.0 | 6.0 | 0.00 | 0.00 | 0.00 | 84 | 1014.1 |
| 20260508131552 | 55 | 100 | 1.0 | 8.0 | 0.00 | 0.00 | 0.00 | 83 | 1014.2 |
| 20260508131042 | 55 | 98 | 2.0 | 8.0 | 0.00 | 0.00 | 0.00 | 83 | 1014.2 |
| 20260508130511 | 54 | 159 | 4.0 | 9.0 | 0.00 | 0.00 | 0.00 | 81 | 1014.1 |
| 20260508130012 | 54 | 166 | 3.0 | 8.0 | 0.00 | 0.00 | 0.00 | 84 | 1014.0 |
| 20260508125509 | 53 | 184 | 2.0 | 6.0 | 0.00 | 0.00 | 0.00 | 86 | 1013.9 |
| 20260508125008 | 52 | 163 | 2.0 | 6.0 | 0.00 | 0.00 | 0.00 | 88 | 1013.9 |
| 20260508124506 | 50 | 163 | 1.0 | 3.0 | 0.00 | 0.00 | 0.00 | 91 | 1014.0 |
| 20260508124005 | 50 | 216 | 0.0 | 7.0 | 0.00 | 0.00 | 0.00 | 90 | 1014.1 |
| 20260508123505 | 50 | 204 | 1.0 | 7.0 | 0.00 | 0.00 | 0.00 | 90 | 1014.1 |
| 20260508123006 | 50 | 175 | 1.0 | 6.0 | 0.00 | 0.00 | 0.00 | 90 | 1014.0 |
| 20260508122501 | 49 | 90 | 1.0 | 6.0 | 0.00 | 0.00 | 0.00 | 89 | 1014.0 |
| 20260508122002 | 49 | 134 | 1.0 | 3.0 | 0.00 | 0.00 | 0.00 | 89 | 1013.9 |
| 20260508121600 | 48 | 144 | 1.0 | 4.0 | 0.00 | 0.00 | 0.00 | 89 | 1013.9 |
| 20260508121058 | 48 | 126 | 2.0 | 4.0 | 0.00 | 0.00 | 0.00 | 89 | 1013.9 |
| 20260508120508 | 47 | 134 | 1.0 | 4.0 | 0.00 | 0.00 | 0.00 | 89 | 1013.8 |
| 20260508120004 | 47 | 121 | 1.0 | 3.0 | 0.00 | 0.00 | 0.00 | 90 | 1013.7 |
| 20260508115503 | 46 | 155 | 1.0 | 3.0 | 0.00 | 0.00 | 0.00 | 91 | 1013.7 |
| 20260508115100 | 46 | 126 | 1.0 | 3.0 | 0.00 | 0.00 | 0.00 | 91 | 1013.6 |
| 20260508114559 | 45 | 121 | 2.0 | 4.0 | 0.00 | 0.00 | 0.00 | 91 | 1013.7 |
| 20260508114058 | 45 | 130 | 1.0 | 4.0 | 0.00 | 0.00 | 0.00 | 90 | 1013.7 |
| 20260508113557 | 45 | 134 | 1.0 | 5.0 | 0.00 | 0.00 | 0.00 | 90 | 1013.7 |
| 20260508113059 | 45 | 159 | 1.0 | 5.0 | 0.00 | 0.00 | 0.00 | 90 | 1013.7 |
| 20260508112555 | 45 | 159 | 1.0 | 5.0 | 0.00 | 0.00 | 0.00 | 89 | 1013.6 |
| 20260508112055 | 45 | 130 | 1.0 | 6.0 | 0.00 | 0.00 | 0.00 | 89 | 1013.4 |
| 20260508111556 | 45 | 129 | 3.0 | 6.0 | 0.00 | 0.00 | 0.00 | 90 | 1013.4 |
| 20260508111054 | 45 | 136 | 1.0 | 4.0 | 0.00 | 0.00 | 0.00 | 90 | 1013.4 |
| 20260508110655 | 45 | 161 | 2.0 | 5.0 | 0.00 | 0.00 | 0.00 | 90 | 1013.4 |
| 20260508110123 | 45 | 161 | 2.0 | 5.0 | 0.00 | 0.00 | 0.00 | 90 | 1013.6 |
| 20260508105556 | 45 | 144 | 2.0 | 5.0 | 0.00 | 0.00 | 0.00 | 90 | 1013.5 |
| 20260508105056 | 45 | 127 | 1.0 | 3.0 | 0.00 | 0.00 | 0.00 | 90 | 1013.6 |
| 20260508104602 | 45 | 144 | 1.0 | 5.0 | 0.00 | 0.00 | 0.00 | 90 | 1013.7 |
| 20260508104055 | 45 | 126 | 1.0 | 5.0 | 0.00 | 0.00 | 0.00 | 90 | 1013.7 |
| 20260508103554 | 45 | 124 | 1.0 | 4.0 | 0.00 | 0.00 | 0.00 | 90 | 1013.6 |
| 20260508103057 | 45 | 133 | 1.0 | 3.0 | 0.00 | 0.00 | 0.00 | 91 | 1013.6 |
| 20260508102552 | 44 | 136 | 0.0 | 3.0 | 0.00 | 0.00 | 0.00 | 92 | 1013.6 |
| 20260508102054 | 44 | 117 | 1.0 | 3.0 | 0.00 | 0.00 | 0.00 | 92 | 1013.7 |
| 20260508101555 | 44 | 138 | 1.0 | 3.0 | 0.00 | 0.00 | 0.00 | 92 | 1013.7 |
| 20260508101051 | 44 | 150 | 1.0 | 3.0 | 0.00 | 0.00 | 0.00 | 92 | 1013.8 |
| 20260508100651 | 44 | 155 | 0.0 | 3.0 | 0.00 | 0.00 | 0.00 | 92 | 1013.9 |
| 20260508100053 | 44 | 165 | 1.0 | 3.0 | 0.00 | 0.00 | 0.00 | 93 | 1013.9 |
| 20260508095557 | 44 | 151 | 1.0 | 3.0 | 0.00 | 0.00 | 0.00 | 93 | 1014.0 |
| 20260508095054 | 44 | 142 | 1.0 | 3.0 | 0.00 | 0.00 | 0.00 | 93 | 1013.9 |
| 20260508094555 | 43 | 138 | 1.0 | 3.0 | 0.00 | 0.00 | 0.00 | 93 | 1013.9 |
| 20260508094051 | 43 | 155 | 0.0 | 3.0 | 0.00 | 0.00 | 0.00 | 93 | 1013.8 |
| 20260508093551 | 43 | 136 | 0.0 | 3.0 | 0.00 | 0.00 | 0.00 | 93 | 1013.9 |
| 20260508093058 | 43 | 136 | 0.0 | 1.0 | 0.00 | 0.00 | 0.00 | 93 | 1013.9 |
| 20260508092549 | 43 | 136 | 0.0 | 1.0 | 0.00 | 0.00 | 0.00 | 93 | 1014.0 |
| 20260508092048 | 44 | 142 | 0.0 | 1.0 | 0.00 | 0.00 | 0.00 | 93 | 1014.0 |
| 20260508091549 | 43 | 142 | 0.0 | 0.0 | 0.00 | 0.00 | 0.00 | 93 | 1013.9 |
| 20260508091048 | 43 | 142 | 0.0 | 0.0 | 0.00 | 0.00 | 0.00 | 93 | 1014.0 |
| 20260508090650 | 43 | 142 | 0.0 | 2.0 | 0.00 | 0.00 | 0.00 | 93 | 1014.0 |
| 20260508090104 | 43 | 142 | 0.0 | 2.0 | 0.00 | 0.00 | 0.00 | 93 | 1013.9 |
| 20260508085546 | 43 | 145 | 0.0 | 1.0 | 0.00 | 0.00 | 0.00 | 93 | 1014.1 |
| 20260508085045 | 43 | 145 | 0.0 | 1.0 | 0.00 | 0.00 | 0.00 | 93 | 1014.1 |
| 20260508084545 | 44 | 144 | 0.0 | 1.0 | 0.00 | 0.00 | 0.00 | 93 | 1014.1 |
| 20260508084048 | 43 | 132 | 0.0 | 1.0 | 0.00 | 0.00 | 0.00 | 93 | 1014.2 |
| 20260508083548 | 43 | 132 | 0.0 | 1.0 | 0.00 | 0.00 | 0.00 | 93 | 1014.2 |
| 20260508083044 | 43 | 132 | 0.0 | 1.0 | 0.00 | 0.00 | 0.00 | 93 | 1014.2 |
| 20260508082544 | 43 | 153 | 0.0 | 3.0 | 0.00 | 0.00 | 0.00 | 93 | 1014.2 |
| 20260508082044 | 43 | 153 | 0.0 | 3.0 | 0.00 | 0.00 | 0.00 | 93 | 1014.2 |
| 20260508081545 | 43 | 123 | 0.0 | 1.0 | 0.00 | 0.00 | 0.00 | 93 | 1014.2 |
| 20260508081042 | 44 | 157 | 0.0 | 1.0 | 0.00 | 0.00 | 0.00 | 93 | 1014.1 |
| 20260508080643 | 44 | 157 | 0.0 | 1.0 | 0.00 | 0.00 | 0.00 | 93 | 1014.2 |
| 20260508080104 | 44 | 157 | 0.0 | 1.0 | 0.00 | 0.00 | 0.00 | 93 | 1014.1 |
| 20260508075559 | 44 | 157 | 0.0 | 1.0 | 0.00 | 0.00 | 0.00 | 93 | 1014.2 |
| 20260508075057 | 44 | 157 | 0.0 | 1.0 | 0.00 | 0.00 | 0.00 | 93 | 1014.4 |
| 20260508074557 | 44 | 157 | 0.0 | 1.0 | 0.00 | 0.00 | 0.00 | 92 | 1014.2 |
| 20260508074059 | 43 | 157 | 0.0 | 1.0 | 0.00 | 0.00 | 0.00 | 92 | 1014.4 |
| 20260508073557 | 44 | 157 | 0.0 | 1.0 | 0.00 | 0.00 | 0.00 | 92 | 1014.4 |
| 20260508073057 | 44 | 157 | 0.0 | 1.0 | 0.00 | 0.00 | 0.00 | 92 | 1014.4 |
| 20260508072556 | 44 | 157 | 0.0 | 1.0 | 0.00 | 0.00 | 0.00 | 92 | 1014.4 |
| 20260508072057 | 44 | 157 | 0.0 | 1.0 | 0.00 | 0.00 | 0.00 | 92 | 1014.4 |
| 20260508071554 | 44 | 157 | 0.0 | 0.0 | 0.00 | 0.00 | 0.00 | 92 | 1014.5 |
| 20260508071055 | 44 | 157 | 0.0 | 0.0 | 0.00 | 0.00 | 0.00 | 92 | 1014.6 |
| 20260508070654 | 44 | 157 | 0.0 | 0.0 | 0.00 | 0.00 | 0.00 | 92 | 1014.5 |
| 20260508070056 | 44 | 157 | 0.0 | 0.0 | 0.00 | 0.00 | 0.00 | 92 | 1014.5 |
| 20260508065558 | 44 | 157 | 0.0 | 1.0 | 0.00 | 0.00 | 0.00 | 92 | 1014.5 |
| 20260508065055 | 44 | 157 | 0.0 | 1.0 | 0.00 | 0.00 | 0.00 | 92 | 1014.6 |
| 20260508064555 | 44 | 147 | 0.0 | 1.0 | 0.00 | 0.00 | 0.00 | 92 | 1014.6 |
| 20260508064055 | 44 | 147 | 0.0 | 1.0 | 0.00 | 0.00 | 0.00 | 92 | 1014.6 |
| 20260508063553 | 44 | 147 | 0.0 | 1.0 | 0.00 | 0.00 | 0.00 | 92 | 1014.7 |
| 20260508063055 | 43 | 147 | 0.0 | 2.0 | 0.00 | 0.00 | 0.00 | 92 | 1014.7 |
| 20260508062551 | 44 | 147 | 0.0 | 2.0 | 0.00 | 0.00 | 0.00 | 92 | 1014.8 |
| 20260508062052 | 44 | 147 | 0.0 | 2.0 | 0.00 | 0.00 | 0.00 | 92 | 1014.9 |
| 20260508061551 | 44 | 189 | 0.0 | 1.0 | 0.00 | 0.00 | 0.00 | 92 | 1014.8 |
| 20260508061050 | 44 | 189 | 0.0 | 2.0 | 0.00 | 0.00 | 0.00 | 92 | 1015.0 |
| 20260508060651 | 44 | 189 | 1.0 | 2.0 | 0.00 | 0.00 | 0.00 | 92 | 1015.0 |
| 20260508060054 | 44 | 189 | 1.0 | 2.0 | 0.00 | 0.00 | 0.00 | 92 | 1015.1 |
| 20260508055551 | 44 | 189 | 0.0 | 2.0 | 0.00 | 0.00 | 0.00 | 92 | 1015.2 |
| 20260508055051 | 44 | 189 | 0.0 | 2.0 | 0.00 | 0.00 | 0.00 | 92 | 1015.2 |
| 20260508054613 | 44 | 189 | 0.0 | 1.0 | 0.00 | 0.00 | 0.00 | 92 | 1015.1 |
| 20260508054049 | 44 | 189 | 0.0 | 1.0 | 0.00 | 0.00 | 0.00 | 92 | 1015.3 |
| 20260508053552 | 44 | 189 | 0.0 | 1.0 | 0.00 | 0.00 | 0.00 | 92 | 1015.3 |
| 20260508053049 | 44 | 189 | 0.0 | 2.0 | 0.00 | 0.00 | 0.00 | 92 | 1015.3 |
| 20260508052550 | 44 | 189 | 0.0 | 2.0 | 0.00 | 0.00 | 0.00 | 92 | 1015.3 |
| 20260508052047 | 44 | 189 | 0.0 | 1.0 | 0.00 | 0.00 | 0.00 | 92 | 1015.4 |
| 20260508051547 | 44 | 189 | 0.0 | 0.0 | 0.00 | 0.00 | 0.00 | 92 | 1015.5 |
| 20260508051047 | 44 | 189 | 0.0 | 0.0 | 0.00 | 0.00 | 0.00 | 92 | 1015.5 |
| 20260508050646 | 44 | 189 | 0.0 | 1.0 | 0.00 | 0.00 | 0.00 | 92 | 1015.4 |
| 20260508050043 | 44 | 189 | 0.0 | 1.0 | 0.00 | 0.00 | 0.00 | 92 | 1015.3 |
| 20260508045542 | 44 | 189 | 0.0 | 1.0 | 0.00 | 0.00 | 0.00 | 92 | 1015.4 |
| 20260508045042 | 44 | 189 | 0.0 | 1.0 | 0.00 | 0.00 | 0.00 | 92 | 1015.5 |
| 20260508044554 | 44 | 189 | 0.0 | 0.0 | 0.00 | 0.00 | 0.00 | 92 | 1015.6 |
| 20260508044042 | 44 | 189 | 0.0 | 1.0 | 0.00 | 0.00 | 0.00 | 92 | 1015.6 |
| 20260508043543 | 44 | 189 | 0.0 | 1.0 | 0.00 | 0.00 | 0.00 | 92 | 1015.6 |
| 20260508043043 | 44 | 189 | 0.0 | 1.0 | 0.00 | 0.00 | 0.00 | 92 | 1015.7 |
| 20260508042542 | 44 | 189 | 0.0 | 0.0 | 0.00 | 0.00 | 0.00 | 92 | 1015.7 |
| 20260508042041 | 44 | 189 | 0.0 | 1.0 | 0.00 | 0.00 | 0.00 | 91 | 1015.7 |
| 20260508041551 | 44 | 189 | 0.0 | 1.0 | 0.00 | 0.00 | 0.00 | 92 | 1015.7 |
| 20260508041041 | 45 | 189 | 0.0 | 1.0 | 0.00 | 0.00 | 0.00 | 91 | 1015.7 |
| 20260508040643 | 45 | 189 | 0.0 | 1.0 | 0.00 | 0.00 | 0.00 | 91 | 1015.7 |
| 20260508040048 | 45 | 189 | 0.0 | 1.0 | 0.00 | 0.00 | 0.00 | 91 | 1015.7 |
| 20260508035541 | 45 | 189 | 0.0 | 1.0 | 0.00 | 0.00 | 0.00 | 91 | 1015.8 |
| 20260508035041 | 45 | 189 | 0.0 | 1.0 | 0.00 | 0.00 | 0.00 | 91 | 1015.8 |
| 20260508034541 | 45 | 189 | 0.0 | 1.0 | 0.00 | 0.00 | 0.00 | 90 | 1015.9 |
| 20260508034041 | 45 | 189 | 0.0 | 1.0 | 0.00 | 0.00 | 0.00 | 90 | 1015.9 |
| 20260508033541 | 45 | 189 | 0.0 | 1.0 | 0.00 | 0.00 | 0.00 | 90 | 1015.9 |
| 20260508033040 | 46 | 189 | 0.0 | 1.0 | 0.00 | 0.00 | 0.00 | 89 | 1015.8 |
| 20260508032543 | 46 | 189 | 0.0 | 0.0 | 0.00 | 0.00 | 0.00 | 89 | 1015.8 |
| 20260508032042 | 46 | 189 | 0.0 | 0.0 | 0.00 | 0.00 | 0.00 | 89 | 1015.7 |
| 20260508031554 | 46 | 189 | 0.0 | 0.0 | 0.00 | 0.00 | 0.00 | 89 | 1015.6 |
| 20260508031039 | 46 | 189 | 0.0 | 0.0 | 0.00 | 0.00 | 0.00 | 89 | 1015.7 |
| 20260508030639 | 46 | 189 | 0.0 | 0.0 | 0.00 | 0.00 | 0.00 | 88 | 1015.6 |
| 20260508030114 | 46 | 189 | 0.0 | 0.0 | 0.00 | 0.00 | 0.00 | 88 | 1015.5 |
| 20260508025600 | 47 | 189 | 0.0 | 0.0 | 0.00 | 0.00 | 0.00 | 87 | 1015.4 |
| 20260508025100 | 47 | 189 | 0.0 | 0.0 | 0.00 | 0.00 | 0.00 | 87 | 1015.4 |
| 20260508024607 | 47 | 189 | 0.0 | 0.0 | 0.00 | 0.00 | 0.00 | 86 | 1015.4 |
| 20260508024059 | 47 | 189 | 0.0 | 1.0 | 0.00 | 0.00 | 0.00 | 86 | 1015.2 |
| 20260508023558 | 48 | 189 | 0.0 | 1.0 | 0.00 | 0.00 | 0.00 | 85 | 1015.2 |
| 20260508023058 | 48 | 189 | 0.0 | 1.0 | 0.00 | 0.00 | 0.00 | 84 | 1015.1 |
| 20260508022557 | 48 | 189 | 0.0 | 1.0 | 0.00 | 0.00 | 0.00 | 84 | 1015.1 |
| 20260508022057 | 49 | 189 | 0.0 | 1.0 | 0.00 | 0.00 | 0.00 | 83 | 1015.1 |
| 20260508021615 | 49 | 189 | 0.0 | 1.0 | 0.00 | 0.00 | 0.00 | 82 | 1014.9 |
| 20260508021059 | 49 | 189 | 0.0 | 0.0 | 0.00 | 0.00 | 0.00 | 81 | 1014.9 |
| 20260508020656 | 50 | 189 | 0.0 | 0.0 | 0.00 | 0.00 | 0.00 | 80 | 1014.8 |
| 20260508020054 | 50 | 189 | 0.0 | 0.0 | 0.00 | 0.00 | 0.00 | 78 | 1014.7 |
| 20260508015554 | 50 | 189 | 0.0 | 0.0 | 0.00 | 0.00 | 0.00 | 77 | 1014.6 |
| 20260508015053 | 51 | 189 | 0.0 | 0.0 | 0.00 | 0.00 | 0.00 | 76 | 1014.6 |
| 20260508014553 | 51 | 189 | 0.0 | 0.0 | 0.00 | 0.00 | 0.00 | 76 | 1014.5 |
| 20260508014053 | 52 | 189 | 0.0 | 0.0 | 0.00 | 0.00 | 0.00 | 77 | 1014.5 |
| 20260508013552 | 52 | 189 | 0.0 | 0.0 | 0.00 | 0.00 | 0.00 | 76 | 1014.4 |
| 20260508013056 | 52 | 189 | 0.0 | 0.0 | 0.00 | 0.00 | 0.00 | 75 | 1014.4 |
| 20260508012552 | 53 | 189 | 0.0 | 0.0 | 0.00 | 0.00 | 0.00 | 73 | 1014.4 |
| 20260508012055 | 53 | 189 | 0.0 | 0.0 | 0.00 | 0.00 | 0.00 | 73 | 1014.4 |
| 20260508011559 | 54 | 189 | 0.0 | 0.0 | 0.00 | 0.00 | 0.00 | 71 | 1014.3 |
| 20260508011056 | 54 | 189 | 0.0 | 0.0 | 0.00 | 0.00 | 0.00 | 71 | 1014.2 |
| 20260508010654 | 55 | 189 | 0.0 | 0.0 | 0.00 | 0.00 | 0.00 | 70 | 1014.3 |
| 20260508010054 | 55 | 189 | 0.0 | 1.0 | 0.00 | 0.00 | 0.00 | 68 | 1014.2 |
| 20260508005555 | 56 | 189 | 0.0 | 1.0 | 0.00 | 0.00 | 0.00 | 65 | 1014.1 |
| 20260508005058 | 57 | 189 | 0.0 | 1.0 | 0.00 | 0.00 | 0.00 | 62 | 1014.0 |
| 20260508004559 | 58 | 189 | 0.0 | 1.0 | 0.00 | 0.00 | 0.00 | 61 | 1014.1 |
| 20260508004053 | 58 | 190 | 0.0 | 1.0 | 0.00 | 0.00 | 0.00 | 59 | 1014.1 |
| 20260508003552 | 60 | 190 | 0.0 | 2.0 | 0.00 | 0.00 | 0.00 | 59 | 1014.1 |
| 20260508003103 | 61 | 199 | 1.0 | 4.0 | 0.00 | 0.00 | 0.00 | 53 | 1014.0 |
| 20260508002552 | 62 | 230 | 1.0 | 4.0 | 0.00 | 0.00 | 0.00 | 49 | 1014.0 |
| 20260508002051 | 62 | 195 | 1.0 | 2.0 | 0.00 | 0.00 | 0.00 | 49 | 1014.0 |
| 20260508001552 | 62 | 222 | 0.0 | 5.0 | 0.00 | 0.00 | 0.00 | 49 | 1014.0 |
| 20260508001051 | 63 | 240 | 1.0 | 6.0 | 0.00 | 0.00 | 0.00 | 49 | 1013.9 |
| 20260508000651 | 63 | 275 | 1.0 | 6.0 | 0.00 | 0.00 | 0.00 | 48 | 1013.9 |
| 20260508000050 | 64 | 190 | 0.0 | 4.0 | 0.00 | 0.00 | 0.00 | 46 | 1013.9 |
| 20260507235550 | 64 | 163 | 1.0 | 5.0 | 0.00 | 0.00 | 0.00 | 46 | 1013.8 |
| 20260507235049 | 64 | 202 | 1.0 | 5.0 | 0.00 | 0.00 | 0.00 | 47 | 1013.9 |
| 20260507234550 | 64 | 323 | 1.0 | 5.0 | 0.00 | 0.00 | 0.00 | 47 | 1013.9 |
| 20260507234051 | 64 | 310 | 2.0 | 9.0 | 0.00 | 0.00 | 0.00 | 47 | 1013.8 |
| 20260507233548 | 64 | 306 | 1.0 | 9.0 | 0.00 | 0.00 | 0.00 | 47 | 1013.9 |
| 20260507233048 | 64 | 158 | 3.0 | 9.0 | 0.00 | 0.00 | 0.00 | 45 | 1014.0 |
| 20260507232548 | 65 | 260 | 1.0 | 6.0 | 0.00 | 0.00 | 0.00 | 45 | 1014.1 |
| 20260507232047 | 64 | 186 | 2.0 | 8.0 | 0.00 | 0.00 | 0.00 | 45 | 1014.1 |
| 20260507231555 | 65 | 181 | 1.0 | 7.0 | 0.00 | 0.00 | 0.00 | 44 | 1014.1 |
| 20260507231046 | 65 | 307 | 1.0 | 7.0 | 0.00 | 0.00 | 0.00 | 45 | 1014.1 |
| 20260507230646 | 65 | 266 | 1.0 | 5.0 | 0.00 | 0.00 | 0.00 | 46 | 1014.2 |
| 20260507230047 | 64 | 250 | 1.0 | 7.0 | 0.00 | 0.00 | 0.00 | 47 | 1014.2 |
| 20260507225548 | 64 | 157 | 2.0 | 9.0 | 0.00 | 0.00 | 0.00 | 46 | 1014.3 |